www.pogodaiklimat.ru

АРХИВ ПОГОДЫ в Атланте

Время (UTC), дата Ветер
(напр.,м/с)
 
Видим.   Явления Облачность Т
(С)
Тd
(С)
f
(%)
Тe
(С)
Тes
(С)
Комфортность

P
(гПа)

Po
(гПа)
Тmin
(С)
Tmax
(С)
R
(мм)
SD
(см)
11:52 16.06 СЗ  16 км    5/2 1500 м
[средняя верхняя] 
+23.3  +18.3  73  +29  +29  душно  1013.2  977.3  +21.7  +23.3     
12:52 16.06 З  16 км    5/0 2400 м
[средняя верхняя] 
+25.0  +18.9  69  +30  +31  душно  1013.6  977.7         
13:52 16.06 СЗ  16 км    2/0 4500 м
[средняя верхняя] 
+27.2  +18.9  60  +32  +34  очень
душно 
1013.5  977.3         
14:52 16.06 СЗ  16 км    2/0 6600 м
[верхняя] 
+28.3  +18.9  57  +34  +36  очень
душно 
1013.1  977.3         
15:52 16.06 СЗ  16 км    2/0 6600 м
[верхняя] 
+30.0  +20.0  55  +36  +41  очень
душно 
1013.0  977.0         
16:52 16.06 СЗ  16 км    2/2 1350 м
[верхняя] 
+32.2  +20.0  49  +39  +44  очень
душно 
1012.6  976.7         
17:52 16.06 СЗ  5
{9} 
16 км    2/2 1350 м  +32.8  +21.1  50  +40  +47  очень
душно 
1012.3  976.4  +23.3  +32.8     
18:52 16.06 З  6
{9} 
16 км    5/5 1440 м  +32.8  +21.1  50  +40  +44  очень
душно 
1011.5  975.7         
19:52 16.06 СЗ  7
{12} 
16 км    5/5 1500 м
[верхняя] 
+32.8  +20.0  47  +39  +41  очень
душно 
1010.9  0.0         
20:52 16.06 С  7
{10} 
16 км    2/2 1650 м
[верхняя] 
+34.4  +20.0  43  +40  +43  очень
душно 
1010.5  974.7         
21:52 16.06 СЗ  4
{8} 
16 км    5/2 1650 м
[верхняя] 
+32.8  +19.4  45  +38  +43  очень
душно 
1010.3  974.4         
22:52 16.06 СЗ  16 км    8/2 1650 м
[средняя верхняя] 
+32.2  +18.3  44  +37  +39  очень
душно 
1010.4  974.4         
23:52 16.06 З  16 км    8/0 6000 м
[средняя верхняя] 
+30.6  +20.0  53  +37  +38  очень
душно 
1010.5  974.7  +30.6  +34.4     
00:52 17.06 З   16 км    8/0 6000 м
[средняя верхняя] 
+28.9  +20.6  61  +36  +36  очень
душно 
1011.1  975.1         
01:52 17.06 З  16 км    8/0 7500 м
[верхняя] 
+27.2  +20.6  67  +34  +34  очень
душно 
1011.1  975.1         
02:52 17.06 З  16 км    5/0 7500 м
[верхняя] 
+26.7  +20.6  69  +33  +33  очень
душно 
1010.6  974.7         
03:52 17.06 З  16 км    5/0 6000 м
[средняя верхняя] 
+25.6  +20.6  74  +32  +32  очень
душно 
1010.4  974.4         
04:52 17.06 СЗ  16 км    8/0 6000 м
[средняя верхняя] 
+25.6  +20.6  74  +32  +32  очень
душно 
1010.2  974.4         
05:52 17.06 СЗ  16 км    8/0 6000 м
[средняя верхняя] 
+24.4  +20.6  79  +30  +30  очень
душно 
1010.1  974.4  +24.4  +30.6     
06:52 17.06 З  16 км    5/0 6000 м
[средняя верхняя] 
+23.9  +20.0  79  +29  +29  душно  1009.9  974.1         
07:52 17.06 З  16 км    5/0 6000 м
[средняя верхняя] 
+23.3  +19.4  79  +30  +30  очень
душно 
1009.5  973.8         
08:52 17.06 З   16 км    5/0 3000 м
[средняя верхняя] 
+23.3  +19.4  79  +30  +30  очень
душно 
1009.9  974.1         
09:52 17.06 З   16 км    5/0 3000 м
[средняя верхняя] 
+23.3  +20.0  82  +30  +30  очень
душно 
1010.0  974.1         
10:52 17.06 З  16 км    2/0 3000 м
[средняя верхняя] 
+23.3  +20.0  82  +30  +30  очень
душно 
1010.2  974.4         
11:52 17.06 З  16 км    2/0 5400 м
[средняя верхняя] 
+24.4  +21.1  82  +31  +31  очень
душно 
1010.5  974.7  +22.8  +25.0     
12:52 17.06 З  16 км    2/0 7500 м
[верхняя] 
+27.2  +22.2  74  +35  +36  очень
душно 
1010.7  974.7         
13:52 17.06 З  14 км    2/2 900 м
[верхняя] 
+29.4  +23.3  70  +40  +41  очень
душно 
1011.0  975.1         
14:52 17.06 СЗ  7
{11} 
14 км    2/2 1050 м
[верхняя] 
+31.7  +23.3  61  +42  +44  опасность
перегрева 
1010.8  975.1         
15:52 17.06 СЗ  8
{10} 
16 км    2/2 1200 м  +33.3  +22.8  54  +43  +44  опасность
перегрева 
1010.8  975.1         
16:52 17.06 З  7
{10} 
16 км    2/2 1350 м
[верхняя] 
+33.9  +22.2  51  +43  +45  опасность
перегрева 
1010.0  974.4         
17:52 17.06 З   4
{9} 
16 км    8/5 1350 м
[средняя верхняя] 
+31.7  +20.6  52  +39  +42  очень
душно 
1009.8  974.1  +24.4  +35.0     
18:20 17.06 СЗ  11
{16} 
16 км  гроза со слабым дождем  8/8 540 м
[средняя верхняя] 
+27.8  +18.3  56  +33  +33  очень
душно 
  975.1         
18:24 17.06 СЗ  6
{15} 
14 км  гроза со слабым дождем  8/8 540 м
[средняя верхняя] 
+26.1  +19.4  67  +32  +33  очень
душно 
  975.4         
18:31 17.06 С  10
{18} 
3 км  гроза с дождем, шквал  10/8 540 м
[средняя верхняя] 
+24.4  +20.0  76  +30  +30  очень
душно 
  975.1         
18:37 17.06 С  8
{14} 
2 км  гроза с дождем  8/8 450 м
[средняя] 
+24.0  +20.0  78  +29  +30  душно    974.7         
18:52 17.06 СЗ  11 км  гроза со слабым дождем  8/2 1380 м
[средняя верхняя] 
+24.4  +20.0  76  +30  +33  очень
душно 
1011.6  975.4         
19:21 17.06 ЮЗ  16 км  слабый дождь  8/2 1380 м
[средняя верхняя] 
+22.8  +18.3  76  +28  +34  душно    973.4         
19:52 17.06 штиль  16 км    8/2 600 м
[средняя верхняя] 
+22.8  +18.9  79  +29  +42  очень
душно 
1009.1  973.1         
20:52 17.06 ЮЗ  16 км    8/2 1380 м
[средняя] 
+22.8  +18.3  76  +28  +32  душно  1008.9  972.8      1.5   
21:52 17.06 З  16 км    8/2 1200 м
[средняя] 
+23.3  +18.3  73  +29  +30  душно  1009.0  973.1         
22:52 17.06 З  16 км    8/0 4500 м
[средняя верхняя] 
+23.9  +18.3  71  +28  +29  душно  1009.2  973.1         
23:52 17.06 СЗ  16 км    8/2 900 м
[средняя верхняя] 
+23.3  +18.9  76  +30  +30  очень
душно 
1009.4  973.4  +22.2  +31.7  1.5   
00:52 18.06 СЗ  16 км    8/2 900 м
[средняя верхняя] 
+23.3  +18.9  76  +30  +30  очень
душно 
1010.3  974.1         
01:52 18.06 З   16 км    8/0 2100 м
[средняя верхняя] 
+22.8  +19.4  81  +29  +29  очень
душно 
1010.7  974.7         
02:52 18.06 СЗ  16 км    8/0 2100 м
[средняя верхняя] 
+22.8  +19.4  81  +29  +29  очень
душно 
1011.7  975.7         
03:52 18.06 СЗ  16 км    8/5 1800 м
[средняя верхняя] 
+22.8  +19.4  81  +29  +29  очень
душно 
1012.5  976.7         
04:52 18.06 СВ  16 км    8/0 2400 м
[средняя верхняя] 
+23.3  +20.0  82  +30  +30  очень
душно 
1012.3  976.4         
05:52 18.06 СВ  16 км    5/2 1650 м
[средняя верхняя] 
+23.3  +19.4  79  +30  +30  очень
душно 
1012.4  976.4  +22.8  +23.3     

 

Местоположение метеостанции Hartsfield-Jackson Atlanta International Airport: широта 33.6403 долгота -84.4269 высота над уровнем моря 313 м.

В архиве по умолчанию представлена погода в Атланте за последние 1-2 суток. Обновление информации о фактической погоде в базе происходит ежечасно! Архивные данные за месяц целиком и за предыдущие месяцы Вы можете получить, выбрав интересующий диапазон дат из раскрывающегося списка и нажав кнопку "Ввод!".

Внимание! Архив погоды МЕТАР в базе сайта в настоящее время начинается c 1 января 2013 г. Нет смысла пытаться выбрать более раннюю дату.

Внимание! Время в таблицах - всемирное. Для получения местного времени необходимо прибавить поправку, которая в Атланте равна -5 ч.

Ветер - указаны скорость ветра в м/с и направление, откуда дует ветер: С - северный, СВ - северо-восточный, В - восточный, ЮВ - юго-восточный, Ю - южный, ЮЗ - юго-западный, З - западный, СЗ - северо-западный.
Видимость - горизонтальная дальность видимости в метрах или километрах. При видимости от 1 до 10 км при отсутствии осадков обычно наблюдается дымка, при ухудшении видимости до 1 км и менее - туман. В сухую погоду видимость может ухудшаться дымом, пылью или мглою.
Атмосферные явления - указаны явления, наблюдавшиеся в указанный момент времени.
Облачность - указаны через наклонную черту верхняя и нижняя облачность в баллах и высота нижней границы облаков в метрах. Внимание: облачность, как и прочие метеорологические величины в США измеряются автоматическими метеостанциями. Указанные значения в баллах носят условный характер и показывают процент времени, в течение которого, в среднем, лазерный луч высотомера отражался от облаков обратно.
T - Температура воздуха - температура, измеренная на высоте 2 м над землей.
Td - Температура точки росы - температура, при понижении до которой содержащийся в воздухе водяной пар достигнет насыщения.
f - Относительная влажность воздуха - влажноcть воздуха, измеренная на высоте 2 м над землей.
Te - Эффективная температура - температура, которую ощущает одетый по сезону человек в тени. Характеристика душности погоды. При расчете учитывается влияние влажности воздуха и скорости ветра на теплоощущения человека.
Tes - Эффективная температура на солнце - температура, которую ощущает человек, с поправкой на солнечный нагрев. Характеристика знойности погоды. Зависит от высоты солнца над горизонтом, облачности и скорости ветра. Ночью, в пасмурную погоду, а также при ветре 12 м/с и более поправка равна нулю.
P - Атмосферное давление - приведенное к уровню моря атмосферное давление.
Po - Атмосферное давление - измеренное на уровне метеостанции атмосферное давление.
Tmin - Минимальная температура - минимум температуры воздуха на высоте 2 м над землей.
Tmax - Максимальная температура - максимум температуры воздуха на высоте 2 м над землей.
R - Количество осадков - Количество выпавших осадков за 3 или 6 часов, мм.
SD - Снежный покров - Высота снежного покрова, см.